This is the latest recevied weather packets stored in our database for station/object EW1958. If no packets are shown the sender has not sent any weather packets the latest 10 day(s).
| Time | Temp. | Humidity | Pressure | Rain* | Wind** | Luminosity | Snow |
|---|---|---|---|---|---|---|---|
| 1787967697 | 18.89° C | 70% | 1018 hPa | 0 mm | - | - | - |
| 1787967347 | 18.89° C | 69% | 1018.2 hPa | 0 mm | - | - | - |
| 1787967046 | 19.44° C | 68% | 1018.1 hPa | 0 mm | - | - | - |
| 1787966791 | 19.44° C | 68% | 1018 hPa | 0 mm | - | - | - |
| 1787966446 | 19.44° C | 68% | 1018 hPa | 0 mm | - | - | - |
| 1787966188 | 19.44° C | 68% | 1018 hPa | 0 mm | - | - | - |
| 1787965846 | 20° C | 67% | 1018 hPa | 0 mm | - | - | - |
| 1787965544 | 20° C | 67% | 1017.9 hPa | 0 mm | - | - | - |
| 1787965244 | 20° C | 67% | 1018 hPa | 0 mm | - | - | - |
| 1787964943 | 20.56° C | 67% | 1018 hPa | 0 mm | - | - | - |
| 1787964643 | 20.56° C | 66% | 1018 hPa | 0 mm | - | - | - |
| 1787964342 | 20.56° C | 65% | 1017.9 hPa | 0 mm | - | - | - |
| 1787964039 | 20.56° C | 63% | 1018 hPa | 0 mm | - | - | - |
| 1787963737 | 20.56° C | 61% | 1018 hPa | 0 mm | - | - | - |
| 1787963436 | 20.56° C | 61% | 1018.1 hPa | 0 mm | - | - | - |
| 1787963137 | 20.56° C | 61% | 1018 hPa | 0 mm | - | - | - |
| 1787962835 | 21.11° C | 62% | 1018 hPa | 0 mm | - | - | - |
| 1787962536 | 21.11° C | 59% | 1018 hPa | 0 mm | - | - | - |
| 1787962232 | 21.11° C | 61% | 1018.1 hPa | 0 mm | - | - | - |
| 1787961933 | 21.11° C | 60% | 1018.2 hPa | 0 mm | - | - | - |
| 1787961632 | 21.11° C | 60% | 1018.3 hPa | 0 mm | - | - | - |
| 1787961478 | 21.11° C | 61% | 1018.2 hPa | 0 mm | - | - | - |
| 1787961030 | 20.56° C | 61% | 1018.4 hPa | 0 mm | - | - | - |
| 1787960882 | 20.56° C | 61% | 1018.5 hPa | 0 mm | - | - | - |
| 1787960430 | 20.56° C | 60% | 1018.6 hPa | 0 mm | - | - | - |
* Rain latest hour (hover to see other rain measurements)
** Current wind speed in m/s (hover to see current wind gust speed)